Lid_Strength_Index
12 12 12 11 11 10 10 9 7 6 5 4 2 1 1 2 2 2 2 2 3 3
12 12 12 11 10 9 8 7 7 6 5 4 4 2 1 2 2 2 2 2 2 2
12 11 11 10 10 10 9 8 7 6 4 3 4 2 1 2 2 2 3 3 3 4
11 11 11 11 10 9 9 9 8 7 5 5 4 3 3 4 4 5 6 6 6 7
11 11 11 11 10 10 9 8 8 7 7 6 6 6 5 6 7 7 8 8 8 9
12 12 12 11 11 10 10 9 9 8 8 9 8 8 8 9 10 10 10 9 9 9
12 12 12 11 11 11 11 10 10 9 9 9 9 9 9 10 10 11 11 11 11 11
12 12 12 12 12 11 11 11 10 10 10 10 9 9 9 10 10 11 12 12 12 12
13 13 13 13 12 12 12 12 11 11 11 11 10 10 10 10 11 12 12 13 13 12
13 13 13 13 13 13 13 12 12 12 11 12 11 10 11 11 12 12 12 12 13 13
14 15 14 13 14 13 13 13 13 12 12 12 11 11 11 12 13 13 13 13 14 14
15 15 15 14 14 14 13 13 13 13 13 13 13 12 12 13 14 14 14 13 13 13
15 15 16 15 16 15 15 14 14 14 15 15 14 12 12 14 14 15 14 14 14 14
16 15 15 16 16 16 16 16 17 17 17 16 15 13 12 12 14 14 15 14 14 13